#timestamp,LO_Frequency,Hit,StdDev 
1607119215.5,286046998.7,N
1607119235.3,286046998.3,N
1607119255.1,286046999.3,N
1607119275.9,286046999.5,N
1607119295.7,286046996.9,Y
1607119315.5,286046999.4,P
1607119335.4,286046999.4,N
1607119355.2,286046999.2,N
1607119375.0,286046997.5,Y
1607119375.9,286046997.5,P
1607119395.8,286046999.0,N
1607119415.6,286047001.1,N
1607119435.4,286046998.4,N
1607119455.3,286046998.2,N
1607119475.1,286046998.3,N
1607119495.8,286046998.6,N
1607119515.7,286046998.7,N
1607119535.5,286047000.0,N
1607119555.3,286047001.0,N
1607119575.2,286046998.2,N
1607119595.9,286046998.1,N
1607119615.7,286046998.1,N
1607119635.6,286046999.0,N
1607119655.4,286046999.4,N
1607119675.2,286046999.3,N
1607119695.1,286046998.3,N
1607119696.0,286046998.3,N
1607119715.8,286046998.5,N
1607119735.6,286046998.2,N
1607119755.5,286046999.6,N
1607119775.3,286046999.5,N
1607119795.1,286046996.8,Y
1607119815.9,286047000.9,P
1607119835.7,286046999.4,N
1607119855.5,286046998.6,N
1607119875.4,286046996.6,Y
1607119895.2,286046999.1,P
1607119915.0,286046999.3,P
1607119915.9,286046999.3,P
1607119935.8,286046998.5,Y
1607119955.6,286047001.1,P
1607119975.4,286047000.3,N
1607119995.3,286047000.9,N
1607120015.1,286046998.2,N
1607120035.8,286046999.1,N
1607120055.7,286046998.6,N
1607120075.5,286046999.6,N
1607120095.3,286046998.4,N
1607120115.2,286047000.8,N
1607120135.0,286047002.5,N
1607120135.9,286047002.5,N
1607120155.7,286046999.8,N
1607120175.6,286047000.6,N
1607120195.4,286047002.0,N
1607120215.2,286046999.7,N
1607120235.1,286047002.3,N
1607120236.0,286047002.3,N
1607120255.8,286047001.0,N
1607120275.6,286046999.0,N
1607120295.5,286047000.7,N
1607120315.3,286047000.1,N
1607120335.1,286047001.0,N
1607120355.9,286047000.9,N
1607120375.7,286046998.6,N
1607120395.5,286046999.1,N
1607120415.4,286046997.0,N
1607120435.2,286046999.1,N
1607120455.0,286046998.8,N
1607120455.9,286046998.8,N
1607120475.8,286047000.1,N
1607120495.6,286047000.4,N
1607120515.4,286046998.8,N
1607120535.3,286046999.3,N
1607120555.1,286046998.4,N
1607120575.8,286046997.8,N
1607120595.7,286046996.9,N
1607120615.5,286046997.0,N
1607120635.3,286046997.2,N
1607120655.2,286046998.0,N
1607120675.0,286046995.2,N
1607120675.9,286046995.2,N
1607120695.7,286046996.2,N
1607120715.6,286046995.1,N
1607120735.4,286046995.4,N
1607120755.2,286046997.8,N
1607120775.1,286046997.7,N
1607120776.0,286046997.7,N
1607120795.8,286046999.5,N
1607120815.6,286046998.5,N
1607120835.5,286046999.0,N
1607120855.3,286046996.8,N
1607120875.1,286046995.3,N
1607120895.9,286046995.7,N
1607120915.7,286046994.9,Y
1607120935.5,286046999.5,P
1607120955.4,286046996.6,P
1607120975.2,286046995.8,P
1607120995.0,286046997.5,N
1607120995.9,286046997.5,N
1607121015.8,286046995.3,Y
1607121035.6,286046999.1,P
1607121055.5,286046998.8,N
1607121075.3,286046999.4,N
1607121095.1,286047000.8,N
1607121115.9,286047000.8,N
1607121135.7,286047001.1,N
1607121155.5,286046998.8,N
1607121175.4,286046999.6,N
1607121195.2,286046998.7,N
1607121215.0,286046996.6,Y
1607121215.9,286046996.6,P
1607121235.8,286046994.9,P
1607121255.6,286046997.6,N
1607121275.4,286046995.4,N
1607121295.3,286046997.5,N
1607121315.1,286046996.9,N
1607121316.0,286046996.9,N
1607121335.8,286046998.4,N
1607121355.7,286047000.8,N
1607121375.5,286047002.3,N
1607121395.3,286047000.5,N
1607121415.2,286047002.1,N
1607121435.9,286047003.2,N
1607121455.7,286047001.9,N
1607121475.6,286047004.3,N
1607121495.4,286047002.7,N
1607121515.2,286047000.1,N
1607121535.1,286046998.6,N
1607121536.0,286046998.6,N
1607121555.8,286046998.7,N
1607121575.6,286046999.3,N
1607121595.5,286047001.2,N
1607121615.3,286047002.8,N
1607121635.1,286047000.4,N
1607121655.9,286046999.8,N
1607121675.7,286047002.2,N
1607121695.5,286046999.8,N
1607121715.4,286046998.5,N
1607121735.2,286046998.3,N
1607121755.0,286047001.2,N
1607121755.9,286047001.2,N
1607121775.8,286047001.1,N
1607121795.6,286046998.8,N
1607121815.4,286046999.0,N
1607121835.3,286046999.2,N
1607121855.1,286046997.0,N
1607121856.0,286046997.0,N
1607121875.8,286046998.0,N
1607121895.7,286046997.8,N
1607121915.5,286046996.9,N
1607121935.3,286046996.5,N
1607121955.2,286046997.8,N
1607121975.9,286046996.9,N
1607121995.7,286046999.3,N
1607122015.6,286046996.6,N
1607122035.4,286046996.9,N
1607122055.2,286046999.4,N
1607122075.1,286046998.3,N
1607122076.0,286046998.3,N
1607122095.8,286047000.5,N
1607122115.6,286047000.5,N
1607122135.5,286046998.2,N
1607122155.3,286046999.1,N
1607122175.1,286046999.5,N
1607122195.9,286046998.3,N
1607122215.7,286047000.8,N
1607122235.5,286046998.5,N
1607122255.4,286046998.2,N
1607122275.2,286046997.7,N
1607122295.0,286046996.5,N
1607122295.9,286046996.5,N
1607122315.8,286046996.8,N
1607122335.6,286046996.8,N
1607122355.4,286046999.4,N
1607122375.3,286046996.5,N
1607122395.1,286046999.6,N
1607122396.0,286046999.6,N
1607122415.8,286046998.5,N
1607122435.7,286046998.8,N
1607122455.5,286046998.7,N
1607122475.3,286046999.6,N
1607122495.2,286046999.6,N
1607122515.9,286046996.6,N
1607122535.7,286047001.1,N
1607122555.6,286047000.3,N
1607122575.4,286047001.0,N
1607122595.2,286046998.6,N
1607122615.1,286046999.6,N
1607122616.0,286046999.6,N
1607122635.8,286046996.9,N
1607122655.6,286046996.7,N
1607122675.5,286046999.0,N
1607122695.3,286046999.3,N
1607122715.1,286047001.2,N
1607122735.9,286047000.7,N
1607122755.7,286046998.7,N
1607122775.5,286046999.1,N
1607122795.3,286046997.3,N
